When you browse on this site, cookies collect data to enhance your experience and personalize the content and advertising you see.
Visit our Privacy Policy to learn more. By continuing to use the site, you agree to this use of cookies and data.
  • In France
  • List of Countries
  • For 7 days
  • Water Temperature
  • Satellite Maps
  • Weather Map
  • Weather Widgets
  • user-avatar
    Login

    Hourly Weather Wenshang

    Today, 19 July, Friday

    Time Temperature Precipitation Wind Pressure Humidity
    00:00 +27°C° 0 mm 2 mps 749 mmHg 77%
    01:00 +26°C° 0 mm 1 mps 749 mmHg 80%
    02:00 +25°C° 0 mm 1 mps 749 mmHg 82%
    03:00 +25°C° 0 mm 1 mps 749 mmHg 82%
    04:00 +25°C° 0 mm 1 mps 749 mmHg 83%
    05:00 +24°C° 0 mm 2 mps 749 mmHg 84%
    06:00 +26°C° 0 mm 2 mps 749 mmHg 77%
    07:00 +28°C° 0 mm 2 mps 749 mmHg 70%
    08:00 +30°C° 0 mm 2 mps 749 mmHg 65%
    09:00 +32°C° 0 mm 2 mps 749 mmHg 60%
    10:00 +34°C° 0 mm 3 mps 749 mmHg 55%
    11:00 +36°C° 0 mm 3 mps 749 mmHg 50%
    12:00 +36°C° 0.1 mm 3 mps 748 mmHg 48%
    13:00 +37°C° 0.1 mm 2 mps 748 mmHg 46%
    14:00 +37°C° 0.1 mm 2 mps 747 mmHg 44%
    15:00 +38°C° 0 mm 2 mps 747 mmHg 43%
    16:00 +38°C° 0 mm 3 mps 746 mmHg 42%
    17:00 +38°C° 0 mm 3 mps 746 mmHg 42%
    18:00 +37°C° 0 mm 3 mps 746 mmHg 48%
    19:00 +35°C° 0 mm 3 mps 746 mmHg 55%
    20:00 +33°C° 0 mm 3 mps 747 mmHg 61%
    21:00 +31°C° 0 mm 3 mps 747 mmHg 66%
    22:00 +30°C° 0 mm 3 mps 747 mmHg 71%
    23:00 +29°C° 0 mm 3 mps 748 mmHg 76%

    Tomorrow, 20 July, Saturday

    Time Temperature Precipitation Wind Pressure Humidity
    00:00 +28°C° 0 mm 3 mps 747 mmHg 79%
    01:00 +28°C° 0 mm 2 mps 747 mmHg 83%
    02:00 +27°C° 0 mm 2 mps 747 mmHg 86%
    03:00 +26°C° 0 mm 2 mps 747 mmHg 87%
    04:00 +26°C° 0 mm 2 mps 747 mmHg 87%
    05:00 +26°C° 0 mm 2 mps 747 mmHg 87%
    06:00 +27°C° 0 mm 2 mps 747 mmHg 78%
    07:00 +29°C° 0 mm 2 mps 747 mmHg 69%
    08:00 +31°C° 0 mm 2 mps 748 mmHg 60%
    09:00 +34°C° 0 mm 2 mps 747 mmHg 54%
    10:00 +36°C° 0 mm 1 mps 747 mmHg 47%
    11:00 +39°C° 0 mm 1 mps 747 mmHg 41%
    12:00 +39°C° 0 mm 1 mps 747 mmHg 39%
    13:00 +39°C° 0 mm 1 mps 746 mmHg 38%
    14:00 +40°C° 0 mm 1 mps 746 mmHg 36%
    15:00 +38°C° 0.1 mm 2 mps 746 mmHg 43%
    16:00 +36°C° 0.1 mm 3 mps 746 mmHg 50%
    17:00 +34°C° 0.1 mm 4 mps 746 mmHg 57%
    18:00 +33°C° 0 mm 4 mps 746 mmHg 62%
    19:00 +31°C° 0 mm 3 mps 746 mmHg 67%
    20:00 +30°C° 0 mm 2 mps 747 mmHg 73%
    21:00 +29°C° 0 mm 2 mps 747 mmHg 74%
    22:00 +29°C° 0 mm 2 mps 747 mmHg 76%
    23:00 +28°C° 0 mm 1 mps 747 mmHg 78%

    Day after tomorrow, 21 July, Sunday

    Time Temperature Precipitation Wind Pressure Humidity
    00:00 +28°C° 0 mm 1 mps 747 mmHg 77%
    01:00 +28°C° 0 mm 1 mps 747 mmHg 77%
    02:00 +28°C° 0 mm 1 mps 747 mmHg 77%
    03:00 +28°C° 0 mm 1 mps 747 mmHg 78%
    04:00 +27°C° 0 mm 1 mps 747 mmHg 79%
    05:00 +27°C° 0 mm 1 mps 747 mmHg 80%
    06:00 +29°C° 0 mm 1 mps 747 mmHg 73%
    07:00 +31°C° 0 mm 1 mps 747 mmHg 65%
    08:00 +32°C° 0 mm 1 mps 748 mmHg 58%
    09:00 +35°C° 0 mm 1 mps 748 mmHg 51%
    10:00 +37°C° 0 mm 1 mps 747 mmHg 44%
    11:00 +40°C° 0 mm 1 mps 747 mmHg 37%
    12:00 +42°C° 0 mm 1 mps 747 mmHg 33%
    13:00 +43°C° 0 mm 1 mps 746 mmHg 29%
    14:00 +42°C° 0 mm 0 mps 745 mmHg 25%
    15:00 +44°C° 0 mm 1 mps 745 mmHg 24%
    16:00 +45°C° 0 mm 2 mps 745 mmHg 23%
    17:00 +45°C° 0 mm 2 mps 745 mmHg 22%
    18:00 +43°C° 0 mm 3 mps 745 mmHg 28%
    19:00 +40°C° 0 mm 3 mps 745 mmHg 33%
    20:00 +38°C° 0 mm 3 mps 746 mmHg 38%
    21:00 +37°C° 0 mm 3 mps 746 mmHg 43%
    22:00 +36°C° 0 mm 3 mps 746 mmHg 48%
    23:00 +35°C° 0 mm 3 mps 746 mmHg 54%

    22 July, Monday

    Time Temperature Precipitation Wind Pressure Humidity
    00:00 +34°C° 0 mm 3 mps 746 mmHg 56%
    01:00 +33°C° 0 mm 3 mps 746 mmHg 58%
    02:00 +33°C° 0 mm 3 mps 746 mmHg 61%
    03:00 +31°C° 0 mm 3 mps 746 mmHg 63%
    04:00 +31°C° 0 mm 3 mps 746 mmHg 65%
    05:00 +30°C° 0 mm 3 mps 746 mmHg 68%
    06:00 +33°C° 0 mm 3 mps 746 mmHg 63%
    07:00 +34°C° 0 mm 3 mps 746 mmHg 59%
    08:00 +36°C° 0 mm 3 mps 747 mmHg 55%
    09:00 +38°C° 0 mm 4 mps 746 mmHg 49%
    10:00 +40°C° 0 mm 4 mps 746 mmHg 42%
    11:00 +42°C° 0 mm 5 mps 746 mmHg 36%
    12:00 +42°C° 0 mm 5 mps 745 mmHg 34%
    13:00 +43°C° 0 mm 5 mps 745 mmHg 32%
    14:00 +44°C° 0 mm 6 mps 744 mmHg 30%
    15:00 +44°C° 0 mm 6 mps 744 mmHg 32%
    16:00 +43°C° 0 mm 5 mps 743 mmHg 33%
    17:00 +42°C° 0 mm 5 mps 743 mmHg 34%
    18:00 +41°C° 0 mm 5 mps 743 mmHg 38%
    19:00 +40°C° 0 mm 5 mps 744 mmHg 41%
    20:00 +37°C° 0 mm 5 mps 744 mmHg 45%
    21:00 +35°C° 0.9 mm 4 mps 744 mmHg 58%
    22:00 +32°C° 0.9 mm 4 mps 745 mmHg 71%
    23:00 +29°C° 0.9 mm 3 mps 745 mmHg 84%

    23 July, Tuesday

    Time Temperature Precipitation Wind Pressure Humidity
    00:00 +28°C° 10.7 mm 2 mps 744 mmHg 88%
    01:00 +28°C° 10.7 mm 2 mps 744 mmHg 92%
    02:00 +27°C° 10.7 mm 2 mps 744 mmHg 96%
    03:00 +28°C° 3.2 mm 2 mps 744 mmHg 95%
    04:00 +28°C° 3.2 mm 2 mps 743 mmHg 95%
    05:00 +28°C° 3.2 mm 2 mps 743 mmHg 94%
    06:00 +28°C° 0.8 mm 2 mps 743 mmHg 94%
    07:00 +28°C° 0.8 mm 2 mps 743 mmHg 94%
    08:00 +28°C° 0.8 mm 3 mps 744 mmHg 93%
    09:00 +29°C° 0 mm 3 mps 744 mmHg 87%
    10:00 +30°C° 0 mm 4 mps 744 mmHg 80%
    11:00 +32°C° 0 mm 4 mps 744 mmHg 74%
    12:00 +33°C° 0 mm 4 mps 743 mmHg 69%
    13:00 +34°C° 0 mm 4 mps 743 mmHg 64%
    14:00 +36°C° 0 mm 4 mps 743 mmHg 59%
    15:00 +35°C° 0 mm 4 mps 743 mmHg 59%
    16:00 +35°C° 0 mm 4 mps 743 mmHg 58%
    17:00 +35°C° 0 mm 4 mps 742 mmHg 58%
    18:00 +34°C° 0 mm 3 mps 743 mmHg 62%
    19:00 +33°C° 0 mm 3 mps 743 mmHg 67%
    20:00 +30°C° 0 mm 2 mps 744 mmHg 71%
    21:00 +30°C° 0 mm 2 mps 744 mmHg 72%
    22:00 +30°C° 0 mm 1 mps 744 mmHg 74%
    23:00 +29°C° 0 mm 1 mps 744 mmHg 75%

    24 July, Wednesday

    Time Temperature Precipitation Wind Pressure Humidity
    00:00 +29°C° 0 mm 1 mps 744 mmHg 76%
    01:00 +29°C° 0 mm 1 mps 744 mmHg 77%
    02:00 +26°C° 0 mm 0 mps 744 mmHg 78%
    03:00 +28°C° 0 mm 1 mps 743 mmHg 80%
    04:00 +27°C° 0 mm 1 mps 743 mmHg 81%
    05:00 +27°C° 0 mm 1 mps 743 mmHg 83%
    06:00 +28°C° 0 mm 1 mps 744 mmHg 78%
    07:00 +30°C° 0 mm 1 mps 744 mmHg 72%
    08:00 +31°C° 0 mm 1 mps 744 mmHg 67%
    09:00 +33°C° 0 mm 1 mps 744 mmHg 60%
    10:00 +35°C° 0 mm 1 mps 744 mmHg 53%
    11:00 +37°C° 0 mm 1 mps 744 mmHg 46%
    12:00 +39°C° 0 mm 1 mps 744 mmHg 42%
    13:00 +40°C° 0 mm 1 mps 743 mmHg 38%
    14:00 +41°C° 0 mm 1 mps 743 mmHg 35%
    15:00 +41°C° 0 mm 2 mps 743 mmHg 34%
    16:00 +40°C° 0 mm 2 mps 742 mmHg 34%
    17:00 +40°C° 0 mm 3 mps 742 mmHg 34%
    18:00 +38°C° 0 mm 3 mps 742 mmHg 38%
    19:00 +37°C° 0 mm 3 mps 742 mmHg 42%
    20:00 +35°C° 0 mm 3 mps 743 mmHg 47%
    21:00 +34°C° 0 mm 3 mps 743 mmHg 49%
    22:00 +33°C° 0 mm 3 mps 743 mmHg 51%
    23:00 +31°C° 0 mm 3 mps 743 mmHg 53%
    Show more